Hourly Data Report for October 08, 2015

All times are specified in Local Standard Time (LST). Add 1 hour to adjust for Daylight Saving Time where and when it is observed.

CHARLOTTETOWN A
PRINCE EDWARD ISLAND

46°17'21.000" N
63°07'09.000" W
48.50 m
8300301
71706
YYG

Download Data

Hourly Data (October 2015)
Hourly Data Report for October 8, 2015
Temp Definition
°C
Dew Point Temp Definition
°C
Rel Hum Definition
%
Wind Dir Definition
10's deg

Wind Spd Definition
km/h
Visibility Definition
km
Stn Press Definition
kPa
Hmdx Definition


Wind Chill Definition


Weather Definition


TIME
00:00 Legend Double Dagger 10.9 8.8 87 26 11 24.1 100.22     LegendNANA
01:00 Legend Double Dagger 10.7 8.8 88 27 12 24.1 100.23     LegendNANA
02:00 Legend Double Dagger 10.0 8.8 92 26 10 24.1 100.28     Mostly Cloudy
03:00 Legend Double Dagger 9.5 8.3 92 26 10 24.1 100.31     LegendNANA
04:00 Legend Double Dagger 9.7 8.2 90 27 11 24.1 100.35     LegendNANA
05:00 Legend Double Dagger 9.4 6.9 84 30 14 24.1 100.43     Mostly Cloudy
06:00 Legend Double Dagger 8.6 5.5 81 28 9 24.1 100.51     LegendNANA
07:00 Legend Double Dagger 8.1 5.4 83 28 12 24.1 100.63     LegendNANA
08:00 Legend Double Dagger 9.3 5.5 77 28 13 24.1 100.70     Mainly Clear
09:00 Legend Double Dagger 10.3 5.5 72 31 18 24.1 100.77     LegendNANA
10:00 Legend Double Dagger 10.9 4.8 66 31 19 24.1 100.81     LegendNANA
11:00 Legend Double Dagger 11.8 5.3 64 29 16 24.1 100.86     Mostly Cloudy
12:00 Legend Double Dagger 11.7 5.2 64 31 16 24.1 100.88     LegendNANA
13:00 Legend Double Dagger 10.6 3.7 62 31 14 24.1 100.89     LegendNANA
14:00 Legend Double Dagger 10.8 3.9 62 31 16 24.1 100.91     Mainly Clear
15:00 Legend Double Dagger 11.1 3.9 61 34 16 24.1 100.94     LegendNANA
16:00 Legend Double Dagger 10.5 3.1 60 31 16 24.1 100.99     LegendNANA
17:00 Legend Double Dagger 9.5 3.7 67 32 6 24.1 101.04     Mostly Cloudy
18:00 Legend Double Dagger 6.4 4.4 87 29 4 24.1 101.09     LegendNANA
19:00 Legend Double Dagger 4.5 2.7 88 36 3 24.1 101.16     LegendNANA
20:00 Legend Double Dagger 6.2 3.4 82 23 5 24.1 101.18     Mainly Clear
21:00 Legend Double Dagger 7.6 4.2 79 23 7 24.1 101.21     LegendNANA
22:00 Legend Double Dagger 5.2 4.0 92 29 4 24.1 101.24     LegendNANA
23:00 Legend Double Dagger 4.5 3.9 96 33 3 24.1 101.24     Mostly Cloudy

Notes on Data Quality.

Legend

  • E = Estimated
  • M = Missing
  • NA = Not Available
  • ‡ = Partner data that is not subject to review by the National Climate Archives
Date modified: